Time,TemperatureF,DewpointF,PressureIn,WindDirection,WindDirectionDegrees,WindSpeedMPH,WindSpeedGustMPH,Humidity,HourlyPrecipIn,Conditions,Clouds,dailyrainin,SoftwareType,DateUTC
2013-03-28 00:03:00,54.0,-99.9,30.28,NNE,19,11.0,14.0,-999,-99.99,,,-99.99,,2013-03-28 04:03:00,
2013-03-28 00:12:00,54.0,-99.9,30.28,NNE,13,13.0,15.0,-999,-99.99,,,-99.99,,2013-03-28 04:12:00,
2013-03-28 00:23:00,54.0,-99.9,30.27,NNE,24,12.0,15.0,-999,-99.99,,,-99.99,,2013-03-28 04:23:00,
2013-03-28 00:32:00,54.0,-99.9,30.27,NNE,17,12.0,15.0,-999,-99.99,,,-99.99,,2013-03-28 04:32:00,
2013-03-28 00:42:00,54.0,-99.9,30.27,NNE,13,15.0,17.0,-999,-99.99,,,-99.99,,2013-03-28 04:42:00,
2013-03-28 00:53:00,54.0,-99.9,30.27,NNE,18,14.0,17.0,-999,-99.99,,,-99.99,,2013-03-28 04:53:00,
2013-03-28 01:02:00,54.0,-99.9,30.27,NNE,26,12.0,17.0,-999,-99.99,,,-99.99,,2013-03-28 05:02:00,
2013-03-28 01:13:00,54.0,-99.9,30.27,NNE,29,10.0,14.0,-999,-99.99,,,-99.99,,2013-03-28 05:13:00,
2013-03-28 01:22:00,54.0,-99.9,30.27,NNE,31,11.0,13.0,-999,-99.99,,,-99.99,,2013-03-28 05:22:00,
2013-03-28 01:32:00,54.0,-99.9,30.27,NNE,29,9.0,13.0,-999,-99.99,,,-99.99,,2013-03-28 05:32:00,
2013-03-28 01:43:00,54.0,-99.9,30.27,NNE,31,11.0,14.0,-999,-99.99,,,-99.99,,2013-03-28 05:43:00,
2013-03-28 01:52:00,54.0,-99.9,30.27,NNE,30,9.0,12.0,-999,-99.99,,,-99.99,,2013-03-28 05:52:00,
2013-03-28 02:02:00,54.0,-99.9,30.27,NE,34,10.0,14.0,-999,-99.99,,,-99.99,,2013-03-28 06:02:00,
2013-03-28 02:13:00,54.0,-99.9,30.27,NE,35,9.0,11.0,-999,-99.99,,,-99.99,,2013-03-28 06:13:00,
2013-03-28 02:22:00,54.0,-99.9,30.26,NNE,33,9.0,12.0,-999,-99.99,,,-99.99,,2013-03-28 06:22:00,
2013-03-28 02:33:00,54.0,-99.9,30.26,NE,45,5.0,10.0,-999,-99.99,,,-99.99,,2013-03-28 06:33:00,
2013-03-28 02:42:00,54.0,-99.9,30.26,NE,45,6.0,8.0,-999,-99.99,,,-99.99,,2013-03-28 06:42:00,
2013-03-28 02:52:00,53.0,-99.9,30.25,NE,43,6.0,8.0,-999,-99.99,,,-99.99,,2013-03-28 06:52:00,
2013-03-28 03:02:00,53.0,-99.9,30.25,NE,40,7.0,9.0,-999,-99.99,,,-99.99,,2013-03-28 07:02:00,
2013-03-28 03:13:00,53.0,-99.9,30.25,NE,44,7.0,10.0,-999,-99.99,,,-99.99,,2013-03-28 07:13:00,
2013-03-28 03:22:00,53.0,-99.9,30.25,NE,44,7.0,9.0,-999,-99.99,,,-99.99,,2013-03-28 07:22:00,
2013-03-28 03:32:00,53.0,-99.9,30.25,NE,39,7.0,9.0,-999,-99.99,,,-99.99,,2013-03-28 07:32:00,
2013-03-28 03:42:00,53.0,-99.9,30.25,NNE,33,9.0,13.0,-999,-99.99,,,-99.99,,2013-03-28 07:42:00,
2013-03-28 03:52:00,53.0,-99.9,30.24,NE,41,7.0,9.0,-999,-99.99,,,-99.99,,2013-03-28 07:52:00,
2013-03-28 04:03:00,53.0,-99.9,30.24,NE,38,9.0,11.0,-999,-99.99,,,-99.99,,2013-03-28 08:03:00,
2013-03-28 04:12:00,53.0,-99.9,30.24,NE,39,8.0,11.0,-999,-99.99,,,-99.99,,2013-03-28 08:12:00,
2013-03-28 04:22:00,53.0,-99.9,30.24,NE,40,7.0,9.0,-999,-99.99,,,-99.99,,2013-03-28 08:22:00,
2013-03-28 04:33:00,53.0,-99.9,30.24,NE,48,6.0,9.0,-999,-99.99,,,-99.99,,2013-03-28 08:33:00,
2013-03-28 04:42:00,53.0,-99.9,30.24,NE,48,8.0,10.0,-999,-99.99,,,-99.99,,2013-03-28 08:42:00,
2013-03-28 04:52:00,53.0,-99.9,30.24,NE,50,7.0,11.0,-999,-99.99,,,-99.99,,2013-03-28 08:52:00,
2013-03-28 05:02:00,52.0,-99.9,30.24,NE,41,8.0,10.0,-999,-99.99,,,-99.99,,2013-03-28 09:02:00,
2013-03-28 05:12:00,52.0,-99.9,30.24,NE,46,6.0,10.0,-999,-99.99,,,-99.99,,2013-03-28 09:12:00,
2013-03-28 05:22:00,51.0,-99.9,30.24,NE,55,8.0,11.0,-999,-99.99,,,-99.99,,2013-03-28 09:22:00,
2013-03-28 05:33:00,51.0,-99.9,30.24,NE,56,8.0,11.0,-999,-99.99,,,-99.99,,2013-03-28 09:33:00,
2013-03-28 05:42:00,51.0,-99.9,30.24,NE,55,9.0,10.0,-999,-99.99,,,-99.99,,2013-03-28 09:42:00,
2013-03-28 05:52:00,51.0,-99.9,30.24,NE,50,8.0,11.0,-999,-99.99,,,-99.99,,2013-03-28 09:52:00,
2013-03-28 06:03:00,51.0,-99.9,30.25,NE,47,8.0,11.0,-999,-99.99,,,-99.99,,2013-03-28 10:03:00,
2013-03-28 06:12:00,51.0,-99.9,30.25,NE,51,8.0,11.0,-999,-99.99,,,-99.99,,2013-03-28 10:12:00,
2013-03-28 06:22:00,51.0,-99.9,30.25,NE,50,7.0,11.0,-999,-99.99,,,-99.99,,2013-03-28 10:22:00,
2013-03-28 06:33:00,51.0,-99.9,30.25,NE,47,7.0,11.0,-999,-99.99,,,-99.99,,2013-03-28 10:33:00,
2013-03-28 06:43:00,51.0,-99.9,30.25,NE,49,7.0,10.0,-999,-99.99,,,-99.99,,2013-03-28 10:43:00,
2013-03-28 06:53:00,51.0,-99.9,30.26,NE,48,7.0,9.0,-999,-99.99,,,-99.99,,2013-03-28 10:53:00,
2013-03-28 07:03:00,51.0,-99.9,30.26,NE,48,9.0,11.0,-999,-99.99,,,-99.99,,2013-03-28 11:03:00,
2013-03-28 07:12:00,51.0,-99.9,30.26,NE,45,9.0,13.0,-999,-99.99,,,-99.99,,2013-03-28 11:12:00,
2013-03-28 07:23:00,51.0,-99.9,30.26,NE,44,9.0,12.0,-999,-99.99,,,-99.99,,2013-03-28 11:23:00,
2013-03-28 07:32:00,50.0,-99.9,30.26,NE,50,9.0,12.0,-999,-99.99,,,-99.99,,2013-03-28 11:32:00,
2013-03-28 07:43:00,50.0,-99.9,30.26,NE,55,8.0,11.0,-999,-99.99,,,-99.99,,2013-03-28 11:43:00,
2013-03-28 07:52:00,50.0,-99.9,30.27,ENE,61,8.0,11.0,-999,-99.99,,,-99.99,,2013-03-28 11:52:00,
2013-03-28 08:02:00,50.0,-99.9,30.27,NE,55,11.0,14.0,-999,-99.99,,,-99.99,,2013-03-28 12:02:00,
2013-03-28 08:12:00,50.0,-99.9,30.27,NE,55,10.0,13.0,-999,-99.99,,,-99.99,,2013-03-28 12:12:00,
2013-03-28 08:22:00,50.0,-99.9,30.27,ENE,57,9.0,13.0,-999,-99.99,,,-99.99,,2013-03-28 12:22:00,
2013-03-28 08:33:00,50.0,-99.9,30.27,ENE,57,10.0,13.0,-999,-99.99,,,-99.99,,2013-03-28 12:33:00,
2013-03-28 08:42:00,50.0,-99.9,30.28,NE,56,8.0,13.0,-999,-99.99,,,-99.99,,2013-03-28 12:42:00,
2013-03-28 08:52:00,50.0,-99.9,30.29,NE,55,7.0,10.0,-999,-99.99,,,-99.99,,2013-03-28 12:52:00,
2013-03-28 09:02:00,50.0,-99.9,30.29,NE,55,8.0,11.0,-999,-99.99,,,-99.99,,2013-03-28 13:02:00,
2013-03-28 09:12:00,51.0,-99.9,30.29,ENE,59,8.0,11.0,-999,-99.99,,,-99.99,,2013-03-28 13:12:00,
2013-03-28 09:22:00,51.0,-99.9,30.29,ENE,60,8.0,12.0,-999,-99.99,,,-99.99,,2013-03-28 13:22:00,
2013-03-28 09:32:00,52.0,-99.9,30.30,ENE,64,7.0,10.0,-999,-99.99,,,-99.99,,2013-03-28 13:32:00,
2013-03-28 09:42:00,52.0,-99.9,30.30,NE,54,7.0,13.0,-999,-99.99,,,-99.99,,2013-03-28 13:42:00,
2013-03-28 09:52:00,53.0,-99.9,30.30,NE,49,9.0,11.0,-999,-99.99,,,-99.99,,2013-03-28 13:52:00,
2013-03-28 10:02:00,53.0,-99.9,30.31,ENE,66,8.0,9.0,-999,-99.99,,,-99.99,,2013-03-28 14:02:00,
2013-03-28 10:12:00,53.0,-99.9,30.31,NE,39,8.0,11.0,-999,-99.99,,,-99.99,,2013-03-28 14:12:00,
2013-03-28 10:23:00,54.0,-99.9,30.31,NE,35,7.0,11.0,-999,-99.99,,,-99.99,,2013-03-28 14:23:00,
2013-03-28 10:33:00,55.0,-99.9,30.31,NE,46,7.0,11.0,-999,-99.99,,,-99.99,,2013-03-28 14:33:00,
2013-03-28 10:42:00,55.0,-99.9,30.31,NE,42,11.0,14.0,-999,-99.99,,,-99.99,,2013-03-28 14:42:00,
2013-03-28 10:52:00,55.0,-99.9,30.31,NE,45,9.0,12.0,-999,-99.99,,,-99.99,,2013-03-28 14:52:00,
2013-03-28 11:02:00,56.0,-99.9,30.31,NNE,24,8.0,10.0,-999,-99.99,,,-99.99,,2013-03-28 15:02:00,
2013-03-28 11:12:00,56.0,-99.9,30.31,NE,34,9.0,12.0,-999,-99.99,,,-99.99,,2013-03-28 15:12:00,
2013-03-28 11:22:00,56.0,-99.9,30.31,NNE,19,11.0,13.0,-999,-99.99,,,-99.99,,2013-03-28 15:22:00,
2013-03-28 11:33:00,57.0,-99.9,30.31,NNE,19,11.0,15.0,-999,-99.99,,,-99.99,,2013-03-28 15:33:00,
2013-03-28 11:43:00,57.0,-99.9,30.31,NNE,18,11.0,13.0,-999,-99.99,,,-99.99,,2013-03-28 15:43:00,
2013-03-28 11:53:00,57.0,-99.9,30.31,NNE,15,13.0,17.0,-999,-99.99,,,-99.99,,2013-03-28 15:53:00,
2013-03-28 12:03:00,58.0,-99.9,30.31,NNE,24,11.0,14.0,-999,-99.99,,,-99.99,,2013-03-28 16:03:00,
2013-03-28 12:13:00,57.0,-99.9,30.31,North,359,10.0,15.0,-999,-99.99,,,-99.99,,2013-03-28 16:13:00,
2013-03-28 12:23:00,57.0,-99.9,30.31,North,358,11.0,13.0,-999,-99.99,,,-99.99,,2013-03-28 16:23:00,
2013-03-28 12:32:00,58.0,-99.9,30.31,North,4,11.0,15.0,-999,-99.99,,,-99.99,,2013-03-28 16:32:00,
2013-03-28 12:42:00,57.0,-99.9,30.31,North,355,17.0,18.0,-999,-99.99,,,-99.99,,2013-03-28 16:42:00,
2013-03-28 12:52:00,57.0,-99.9,30.31,North,357,16.0,17.0,-999,-99.99,,,-99.99,,2013-03-28 16:52:00,
2013-03-28 13:02:00,57.0,-99.9,30.31,North,356,17.0,18.0,-999,-99.99,,,-99.99,,2013-03-28 17:02:00,
2013-03-28 13:12:00,57.0,-99.9,30.30,North,356,16.0,19.0,-999,-99.99,,,-99.99,,2013-03-28 17:12:00,
2013-03-28 13:22:00,57.0,-99.9,30.30,North,357,16.0,18.0,-999,-99.99,,,-99.99,,2013-03-28 17:22:00,
2013-03-28 13:32:00,57.0,-99.9,30.30,North,355,17.0,19.0,-999,-99.99,,,-99.99,,2013-03-28 17:32:00,
2013-03-28 13:42:00,57.0,-99.9,30.30,North,355,17.0,19.0,-999,-99.99,,,-99.99,,2013-03-28 17:42:00,
2013-03-28 13:52:00,57.0,-99.9,30.30,North,356,15.0,18.0,-999,-99.99,,,-99.99,,2013-03-28 17:52:00,
2013-03-28 14:03:00,57.0,-99.9,30.29,North,355,16.0,18.0,-999,-99.99,,,-99.99,,2013-03-28 18:03:00,
2013-03-28 14:12:00,58.0,-99.9,30.29,North,356,16.0,18.0,-999,-99.99,,,-99.99,,2013-03-28 18:12:00,
2013-03-28 14:22:00,58.0,-99.9,30.29,North,354,16.0,18.0,-999,-99.99,,,-99.99,,2013-03-28 18:22:00,
2013-03-28 14:32:00,58.0,-99.9,30.28,North,355,15.0,17.0,-999,-99.99,,,-99.99,,2013-03-28 18:32:00,
2013-03-28 14:42:00,58.0,-99.9,30.28,North,351,16.0,17.0,-999,-99.99,,,-99.99,,2013-03-28 18:42:00,
2013-03-28 14:52:00,58.0,-99.9,30.28,North,352,15.0,17.0,-999,-99.99,,,-99.99,,2013-03-28 18:52:00,
2013-03-28 15:02:00,58.0,-99.9,30.27,North,350,15.0,17.0,-999,-99.99,,,-99.99,,2013-03-28 19:02:00,
2013-03-28 15:12:00,58.0,-99.9,30.27,North,353,15.0,17.0,-999,-99.99,,,-99.99,,2013-03-28 19:12:00,
2013-03-28 15:23:00,58.0,-99.9,30.27,North,352,17.0,18.0,-999,-99.99,,,-99.99,,2013-03-28 19:23:00,
2013-03-28 15:33:00,58.0,-99.9,30.26,North,352,16.0,18.0,-999,-99.99,,,-99.99,,2013-03-28 19:33:00,
2013-03-28 15:43:00,58.0,-99.9,30.26,North,350,16.0,17.0,-999,-99.99,,,-99.99,,2013-03-28 19:43:00,
2013-03-28 15:52:00,58.0,-99.9,30.25,NNW,345,15.0,18.0,-999,-99.99,,,-99.99,,2013-03-28 19:52:00,
2013-03-28 16:03:00,58.0,-99.9,30.24,NNW,343,15.0,18.0,-999,-99.99,,,-99.99,,2013-03-28 20:03:00,
2013-03-28 16:12:00,59.0,-99.9,30.24,NNW,338,15.0,17.0,-999,-99.99,,,-99.99,,2013-03-28 20:12:00,
2013-03-28 16:22:00,59.0,-99.9,30.24,NNW,338,15.0,17.0,-999,-99.99,,,-99.99,,2013-03-28 20:22:00,
2013-03-28 16:33:00,59.0,-99.9,30.24,NNW,337,16.0,17.0,-999,-99.99,,,-99.99,,2013-03-28 20:33:00,
2013-03-28 16:43:00,59.0,-99.9,30.24,NNW,331,15.0,17.0,-999,-99.99,,,-99.99,,2013-03-28 20:43:00,
2013-03-28 16:53:00,59.0,-99.9,30.23,NNW,332,15.0,18.0,-999,-99.99,,,-99.99,,2013-03-28 20:53:00,
2013-03-28 17:03:00,59.0,-99.9,30.23,NNW,334,15.0,17.0,-999,-99.99,,,-99.99,,2013-03-28 21:03:00,
2013-03-28 17:12:00,59.0,-99.9,30.23,NNW,336,15.0,17.0,-999,-99.99,,,-99.99,,2013-03-28 21:12:00,
2013-03-28 17:22:00,59.0,-99.9,30.23,NNW,328,14.0,17.0,-999,-99.99,,,-99.99,,2013-03-28 21:22:00,
2013-03-28 17:33:00,59.0,-99.9,30.23,NNW,330,14.0,17.0,-999,-99.99,,,-99.99,,2013-03-28 21:33:00,
2013-03-28 17:43:00,59.0,-99.9,30.23,NW,320,13.0,16.0,-999,-99.99,,,-99.99,,2013-03-28 21:43:00,
2013-03-28 17:53:00,59.0,-99.9,30.23,NW,313,15.0,18.0,-999,-99.99,,,-99.99,,2013-03-28 21:53:00,
2013-03-28 18:03:00,59.0,-99.9,30.23,NW,318,14.0,17.0,-999,-99.99,,,-99.99,,2013-03-28 22:03:00,
2013-03-28 18:13:00,59.0,-99.9,30.23,NW,315,13.0,16.0,-999,-99.99,,,-99.99,,2013-03-28 22:13:00,
2013-03-28 18:23:00,59.0,-99.9,30.23,NW,311,13.0,15.0,-999,-99.99,,,-99.99,,2013-03-28 22:23:00,
2013-03-28 18:32:00,59.0,-99.9,30.22,NW,310,13.0,15.0,-999,-99.99,,,-99.99,,2013-03-28 22:32:00,
2013-03-28 18:42:00,59.0,-99.9,30.23,NW,312,14.0,16.0,-999,-99.99,,,-99.99,,2013-03-28 22:42:00,
2013-03-28 18:53:00,60.0,-99.9,30.23,NW,321,10.0,15.0,-999,-99.99,,,-99.99,,2013-03-28 22:53:00,
2013-03-28 19:03:00,60.0,-99.9,30.23,NNW,327,12.0,15.0,-999,-99.99,,,-99.99,,2013-03-28 23:03:00,
2013-03-28 19:12:00,60.0,-99.9,30.23,NW,326,12.0,15.0,-999,-99.99,,,-99.99,,2013-03-28 23:12:00,
2013-03-28 19:22:00,60.0,-99.9,30.24,NNW,331,13.0,15.0,-999,-99.99,,,-99.99,,2013-03-28 23:22:00,
2013-03-28 19:32:00,60.0,-99.9,30.24,NNW,328,12.0,15.0,-999,-99.99,,,-99.99,,2013-03-28 23:32:00,
2013-03-28 19:42:00,60.0,-99.9,30.24,NNW,330,12.0,16.0,-999,-99.99,,,-99.99,,2013-03-28 23:42:00,
2013-03-28 19:53:00,60.0,-99.9,30.24,NNW,327,11.0,14.0,-999,-99.99,,,-99.99,,2013-03-28 23:53:00,
2013-03-28 20:03:00,60.0,-99.9,30.25,NNW,333,11.0,15.0,-999,-99.99,,,-99.99,,2013-03-29 00:03:00,
2013-03-28 20:12:00,59.0,-99.9,30.25,NNW,336,13.0,15.0,-999,-99.99,,,-99.99,,2013-03-29 00:12:00,
2013-03-28 20:22:00,60.0,-99.9,30.25,NNW,340,12.0,13.0,-999,-99.99,,,-99.99,,2013-03-29 00:22:00,
2013-03-28 20:33:00,59.0,-99.9,30.25,NNW,331,11.0,13.0,-999,-99.99,,,-99.99,,2013-03-29 00:33:00,
2013-03-28 20:43:00,60.0,-99.9,30.25,NNW,336,9.0,12.0,-999,-99.99,,,-99.99,,2013-03-29 00:43:00,
2013-03-28 20:52:00,60.0,-99.9,30.25,NNW,336,9.0,11.0,-999,-99.99,,,-99.99,,2013-03-29 00:52:00,
2013-03-28 21:02:00,60.0,-99.9,30.25,NNW,335,10.0,13.0,-999,-99.99,,,-99.99,,2013-03-29 01:02:00,
2013-03-28 21:12:00,60.0,-99.9,30.25,NNW,337,12.0,14.0,-999,-99.99,,,-99.99,,2013-03-29 01:12:00,
2013-03-28 21:23:00,60.0,-99.9,30.25,North,349,11.0,13.0,-999,-99.99,,,-99.99,,2013-03-29 01:23:00,
2013-03-28 21:33:00,60.0,-99.9,30.26,North,351,12.0,14.0,-999,-99.99,,,-99.99,,2013-03-29 01:33:00,
2013-03-28 21:42:00,60.0,-99.9,30.26,North,349,12.0,13.0,-999,-99.99,,,-99.99,,2013-03-29 01:42:00,
2013-03-28 21:53:00,60.0,-99.9,30.26,NNW,345,13.0,14.0,-999,-99.99,,,-99.99,,2013-03-29 01:53:00,
2013-03-28 22:03:00,60.0,-99.9,30.26,North,349,13.0,15.0,-999,-99.99,,,-99.99,,2013-03-29 02:03:00,
2013-03-28 22:12:00,60.0,-99.9,30.26,North,352,11.0,12.0,-999,-99.99,,,-99.99,,2013-03-29 02:12:00,
2013-03-28 22:22:00,60.0,-99.9,30.26,North,352,11.0,13.0,-999,-99.99,,,-99.99,,2013-03-29 02:22:00,
2013-03-28 22:32:00,60.0,-99.9,30.27,NNW,346,11.0,13.0,-999,-99.99,,,-99.99,,2013-03-29 02:32:00,
2013-03-28 22:42:00,60.0,-99.9,30.27,North,352,12.0,13.0,-999,-99.99,,,-99.99,,2013-03-29 02:42:00,
2013-03-28 22:53:00,60.0,-99.9,30.27,North,354,13.0,15.0,-999,-99.99,,,-99.99,,2013-03-29 02:53:00,
2013-03-28 23:03:00,60.0,-99.9,30.27,North,356,12.0,13.0,-999,-99.99,,,-99.99,,2013-03-29 03:03:00,
2013-03-28 23:12:00,60.0,-99.9,30.27,North,351,12.0,14.0,-999,-99.99,,,-99.99,,2013-03-29 03:12:00,
2013-03-28 23:22:00,60.0,-99.9,30.27,North,355,11.0,13.0,-999,-99.99,,,-99.99,,2013-03-29 03:22:00,
2013-03-28 23:33:00,60.0,-99.9,30.27,North,353,12.0,13.0,-999,-99.99,,,-99.99,,2013-03-29 03:33:00,
2013-03-28 23:43:00,60.0,-99.9,30.28,North,355,12.0,13.0,-999,-99.99,,,-99.99,,2013-03-29 03:43:00,
2013-03-28 23:53:00,60.0,-99.9,30.28,North,352,12.0,14.0,-999,-99.99,,,-99.99,,2013-03-29 03:53:00,